| time (UTC) | temp C | wind direction | speed KPH | gust KPH | rain 1hr cm | rain 24hr cm | rain mn cm | humidity % | barometer mb |
| 20260831141556 | 31 | 359 | 0.0 | 0.0 | 0.00 | 0.00 | 0.00 | 75 | 1019.3 |
| 20260831140050 | 29 | 359 | 0.0 | 0.0 | 0.00 | 0.00 | 0.00 | 80 | 1019.1 |
| 20260831134546 | 28 | 359 | 0.0 | 1.6 | 0.00 | 0.00 | 0.00 | 83 | 1019.1 |
| 20260831133044 | 29 | 359 | 0.0 | 1.6 | 0.00 | 0.00 | 0.00 | 78 | 1019.0 |
| 20260831131540 | 29 | 359 | 0.0 | 1.6 | 0.00 | 0.00 | 0.00 | 81 | 1019.0 |
| 20260831130037 | 28 | 359 | 0.0 | 1.6 | 0.00 | 0.00 | 0.00 | 84 | 1018.9 |
| 20260831124531 | 27 | 359 | 0.0 | 6.4 | 0.00 | 0.00 | 0.00 | 89 | 1019.0 |
| 20260831123027 | 26 | 359 | 1.6 | 6.4 | 0.00 | 0.00 | 0.00 | 93 | 1018.8 |
| 20260831121527 | 25 | 359 | 0.0 | 6.4 | 0.00 | 0.00 | 0.00 | 94 | 1018.7 |
| 20260831120025 | 25 | 23 | 1.6 | 8.0 | 0.00 | 0.00 | 0.00 | 94 | 1018.6 |
| 20260831114539 | 25 | 359 | 0.0 | 6.4 | 0.00 | 0.00 | 0.00 | 94 | 1018.5 |
| 20260831113018 | 25 | 359 | 1.6 | 6.4 | 0.00 | 0.00 | 0.00 | 95 | 1018.3 |
| 20260831111516 | 25 | 359 | 0.0 | 8.0 | 0.00 | 0.00 | 0.00 | 94 | 1018.3 |
| 20260831110015 | 24 | 359 | 0.0 | 4.8 | 0.00 | 0.00 | 0.00 | 94 | 1018.2 |
| 20260831104523 | 24 | 359 | 0.0 | 6.4 | 0.00 | 0.00 | 0.00 | 94 | 1017.9 |
| 20260831103015 | 25 | 359 | 0.0 | 6.4 | 0.00 | 0.00 | 0.00 | 94 | 1017.6 |
| 20260831101519 | 25 | 359 | 4.8 | 9.7 | 0.00 | 0.00 | 0.00 | 93 | 1017.6 |
| 20260831100014 | 25 | 359 | 0.0 | 3.2 | 0.00 | 0.00 | 0.00 | 94 | 1017.6 |
| 20260831094515 | 24 | 359 | 0.0 | 4.8 | 0.00 | 0.00 | 0.00 | 95 | 1017.7 |
| 20260831093011 | 25 | 359 | 0.0 | 1.6 | 0.00 | 0.00 | 0.00 | 94 | 1017.6 |
| 20260831091525 | 25 | 359 | 0.0 | 8.0 | 0.00 | 0.00 | 0.00 | 95 | 1017.6 |
| 20260831090017 | 25 | 359 | 0.0 | 0.0 | 0.00 | 0.00 | 0.00 | 95 | 1017.6 |
| 20260831084515 | 25 | 359 | 0.0 | 0.0 | 0.00 | 0.00 | 0.00 | 95 | 1017.5 |
| 20260831083009 | 25 | 359 | 0.0 | 1.6 | 0.00 | 0.00 | 0.00 | 94 | 1017.6 |
| 20260831081508 | 25 | 359 | 0.0 | 0.0 | 0.00 | 0.00 | 0.00 | 94 | 1017.6 |
| 20260831080006 | 25 | 359 | 0.0 | 3.2 | 0.00 | 0.00 | 0.00 | 94 | 1017.8 |
| 20260831074504 | 25 | 54 | 0.0 | 1.6 | 0.00 | 0.00 | 0.00 | 93 | 1018.0 |
| 20260831073004 | 25 | 60 | 0.0 | 0.0 | 0.00 | 0.00 | 0.00 | 93 | 1018.0 |
| 20260831071502 | 25 | 59 | 0.0 | 0.0 | 0.00 | 0.00 | 0.00 | 92 | 1017.9 |
| 20260831070100 | 26 | 60 | 0.0 | 0.0 | 0.00 | 0.00 | 0.00 | 92 | 1018.0 |
| 20260831064608 | 26 | 59 | 0.0 | 0.0 | 0.00 | 0.00 | 0.00 | 92 | 1018.2 |
| 20260831063056 | 26 | 60 | 0.0 | 0.0 | 0.00 | 0.00 | 0.00 | 91 | 1018.2 |
| 20260831061555 | 26 | 56 | 0.0 | 0.0 | 0.00 | 0.00 | 0.00 | 91 | 1018.4 |
| 20260831060054 | 26 | 57 | 0.0 | 0.0 | 0.00 | 0.00 | 0.00 | 91 | 1018.3 |
| 20260831054603 | 26 | 57 | 0.0 | 0.0 | 0.00 | 0.00 | 0.00 | 91 | 1018.6 |
| 20260831053052 | 26 | 57 | 0.0 | 0.0 | 0.00 | 0.00 | 0.00 | 90 | 1018.6 |
| 20260831051551 | 26 | 58 | 0.0 | 0.0 | 0.00 | 0.00 | 0.00 | 90 | 1018.6 |
| 20260831050054 | 26 | 359 | 0.0 | 0.0 | 0.00 | 0.00 | 0.00 | 90 | 1018.6 |
| 20260831044609 | 26 | 60 | 0.0 | 0.0 | 0.00 | 0.00 | 0.00 | 90 | 1018.6 |
| 20260831043048 | 26 | 59 | 0.0 | 0.0 | 0.00 | 0.00 | 0.00 | 90 | 1018.7 |
| 20260831041608 | 26 | 359 | 0.0 | 0.0 | 0.00 | 0.00 | 0.00 | 89 | 1018.7 |
| 20260831040046 | 26 | 58 | 0.0 | 0.0 | 0.00 | 0.00 | 0.00 | 89 | 1018.7 |
| 20260831034546 | 26 | 359 | 0.0 | 1.6 | 0.00 | 0.00 | 0.00 | 89 | 1018.7 |
| 20260831033044 | 26 | 359 | 0.0 | 1.6 | 0.00 | 0.00 | 0.00 | 90 | 1018.8 |
| 20260831031544 | 26 | 359 | 0.0 | 4.8 | 0.00 | 0.00 | 0.00 | 90 | 1018.8 |
| 20260831030050 | 26 | 359 | 0.0 | 6.4 | 0.00 | 0.00 | 0.00 | 90 | 1018.9 |
| 20260831024545 | 26 | 359 | 0.0 | 4.8 | 0.00 | 0.00 | 0.00 | 89 | 1018.9 |
| 20260831023043 | 26 | 359 | 0.0 | 6.4 | 0.00 | 0.00 | 0.00 | 89 | 1019.0 |
| 20260831021543 | 26 | 359 | 0.0 | 4.8 | 0.00 | 0.00 | 0.00 | 88 | 1018.9 |
| 20260831020042 | 26 | 44 | 0.0 | 1.6 | 0.00 | 0.00 | 0.00 | 88 | 1019.0 |
| 20260831014541 | 26 | 359 | 0.0 | 1.6 | 0.00 | 0.00 | 0.00 | 87 | 1019.2 |
| 20260831013043 | 27 | 359 | 0.0 | 3.2 | 0.00 | 0.00 | 0.00 | 88 | 1019.1 |
| 20260831011546 | 27 | 359 | 0.0 | 3.2 | 0.00 | 0.00 | 0.00 | 87 | 1018.9 |
| 20260831010040 | 27 | 359 | 0.0 | 6.4 | 0.00 | 0.00 | 0.00 | 87 | 1019.0 |
| 20260831004540 | 27 | 359 | 3.2 | 9.7 | 0.00 | 0.00 | 0.00 | 87 | 1018.8 |
| 20260831003042 | 27 | 359 | 1.6 | 12.9 | 0.00 | 0.00 | 0.00 | 86 | 1018.7 |
| 20260831001539 | 27 | 359 | 3.2 | 12.9 | 0.00 | 0.00 | 0.00 | 86 | 1018.6 |
| 20260831000039 | 27 | 359 | 1.6 | 16.1 | 0.00 | 0.00 | 0.00 | 84 | 1018.6 |
| 20260830234544 | 27 | 47 | 0.0 | 4.8 | 0.00 | 0.00 | 0.00 | 83 | 1018.5 |
| 20260830233038 | 27 | 359 | 0.0 | 4.8 | 0.00 | 0.00 | 0.00 | 83 | 1018.4 |
| 20260830231546 | 27 | 359 | 0.0 | 1.6 | 0.00 | 0.00 | 0.00 | 83 | 1018.5 |
| 20260830230044 | 27 | 18 | 0.0 | 8.0 | 0.00 | 0.00 | 0.00 | 83 | 1018.4 |
| 20260830224542 | 28 | 359 | 0.0 | 9.7 | 0.00 | 0.00 | 0.00 | 82 | 1018.3 |
| 20260830223036 | 28 | 359 | 0.0 | 14.5 | 0.00 | 0.00 | 0.00 | 82 | 1018.3 |
| 20260830221535 | 28 | 359 | 1.6 | 12.9 | 0.00 | 0.00 | 0.00 | 81 | 1018.2 |
| 20260830220036 | 28 | 359 | 1.6 | 14.5 | 0.00 | 0.00 | 0.00 | 81 | 1018.1 |
| 20260830214536 | 28 | 359 | 3.2 | 12.9 | 0.00 | 0.00 | 0.00 | 80 | 1017.9 |
| 20260830213034 | 28 | 98 | 3.2 | 17.7 | 0.00 | 0.00 | 0.00 | 80 | 1018.1 |
| 20260830211534 | 28 | 359 | 1.6 | 14.5 | 0.00 | 0.00 | 0.00 | 81 | 1018.0 |
| 20260830210032 | 28 | 359 | 0.0 | 14.5 | 0.00 | 0.00 | 0.00 | 80 | 1018.0 |
| 20260830204531 | 29 | 359 | 0.0 | 8.0 | 0.00 | 0.00 | 0.00 | 79 | 1018.2 |
| 20260830203036 | 29 | 359 | 0.0 | 8.0 | 0.00 | 0.00 | 0.00 | 78 | 1018.4 |
| 20260830201537 | 29 | 359 | 3.2 | 14.5 | 0.00 | 0.00 | 0.00 | 78 | 1018.5 |
| 20260830200030 | 29 | 359 | 3.2 | 19.3 | 0.00 | 0.00 | 0.00 | 77 | 1018.6 |
| 20260830194530 | 29 | 359 | 1.6 | 17.7 | 0.00 | 0.00 | 0.00 | 76 | 1018.7 |
| 20260830193037 | 29 | 359 | 8.0 | 19.3 | 0.00 | 0.00 | 0.00 | 75 | 1018.8 |
| 20260830191528 | 30 | 47 | 0.0 | 12.9 | 0.00 | 0.00 | 0.00 | 73 | 1018.8 |
| 20260830190028 | 30 | 359 | 6.4 | 20.9 | 0.00 | 0.00 | 0.00 | 74 | 1018.7 |
| 20260830184528 | 30 | 359 | 4.8 | 20.9 | 0.00 | 0.00 | 0.00 | 73 | 1019.0 |
| 20260830183027 | 30 | 359 | 0.0 | 22.5 | 0.00 | 0.00 | 0.00 | 73 | 1019.1 |
| 20260830181527 | 30 | 359 | 0.0 | 8.0 | 0.00 | 0.00 | 0.00 | 72 | 1019.1 |
| 20260830180048 | 30 | 359 | 6.4 | 17.7 | 0.00 | 0.00 | 0.00 | 74 | 1019.2 |
| 20260830174525 | 30 | 359 | 0.0 | 12.9 | 0.00 | 0.00 | 0.00 | 72 | 1019.4 |
| 20260830173035 | 29 | 359 | 0.0 | 19.3 | 0.00 | 0.00 | 0.00 | 75 | 1019.6 |
| 20260830171524 | 30 | 359 | 0.0 | 12.9 | 0.00 | 0.00 | 0.00 | 74 | 1019.9 |
| 20260830170024 | 30 | 359 | 0.0 | 9.7 | 0.00 | 0.00 | 0.00 | 74 | 1020.1 |
| 20260830164522 | 29 | 359 | 1.6 | 17.7 | 0.00 | 0.00 | 0.00 | 75 | 1020.4 |
| 20260830163023 | 30 | 359 | 0.0 | 14.5 | 0.00 | 0.00 | 0.00 | 75 | 1020.0 |
| 20260830161523 | 30 | 359 | 0.0 | 6.4 | 0.00 | 0.00 | 0.00 | 75 | 1020.0 |
| 20260830160020 | 29 | 359 | 0.0 | 4.8 | 0.00 | 0.00 | 0.00 | 77 | 1019.9 |
| 20260830154520 | 29 | 359 | 0.0 | 1.6 | 0.00 | 0.00 | 0.00 | 76 | 1020.0 |
| 20260830153018 | 30 | 359 | 0.0 | 0.0 | 0.00 | 0.00 | 0.00 | 72 | 1020.3 |
| 20260830151515 | 29 | 359 | 0.0 | 1.6 | 0.00 | 0.00 | 0.00 | 76 | 1020.3 |
| 20260830150024 | 29 | 359 | 0.0 | 0.0 | 0.00 | 0.00 | 0.00 | 77 | 1020.4 |
| 20260830144509 | 28 | 359 | 0.0 | 0.0 | 0.00 | 0.00 | 0.00 | 78 | 1020.4 |
| 20260830143006 | 28 | 359 | 0.0 | 0.0 | 0.00 | 0.00 | 0.00 | 81 | 1020.5 |